Overview Statistics Trail Chart Weather Telemetry Raw packets
 

This is the latest recevied weather packets stored in our database for station/object N7WSS. If no packets are shown the sender has not sent any weather packets the latest 10 day(s).

<< 48 49 50 51 52 53 54 >>
Time Temp. Humidity Pressure Rain* Wind** Luminosity Snow
1788304216 33.89° C 35% 1013.5 hPa 0 mm - - -
1788303915 33.33° C 37% 1013.5 hPa 0 mm - - -
1788303611 33.33° C 37% 1013.5 hPa 0 mm - - -
1788303306 34.44° C 35% 1013.5 hPa 0 mm - - -
1788303000 33.89° C 36% 1013.5 hPa 0 mm - - -
1788302696 33.89° C 36% 1013.3 hPa 0 mm - - -
1788302392 33.89° C 37% 1013.1 hPa 0 mm - - -
1788302088 33.33° C 38% 1013.2 hPa 0 mm - - -
1788301783 33.33° C 38% 1013.6 hPa 0 mm - - -
1788301479 33.89° C 38% 1013.5 hPa 0 mm - - -
1788301175 34.44° C 36% 1013.6 hPa 0 mm - - -
1788300871 33.89° C 36% 1013.7 hPa 0 mm - - -
1788300565 34.44° C 36% 1013.6 hPa 0 mm - - -
1788300264 34.44° C 36% 1013.8 hPa 0 mm - - -
1788299963 33.89° C 38% 1014 hPa 0 mm - - -
1788299361 33.89° C 37% 1014.3 hPa 0 mm - - -
1788299060 33.33° C 39% 1014.2 hPa 0 mm - - -
1788298760 33.33° C 38% 1014.1 hPa 0 mm - - -
1788298455 32.78° C 38% 1014.3 hPa 0 mm - - -
1788298154 33.33° C 38% 1014.3 hPa 0 mm - - -
1788297849 33.89° C 38% 1014.3 hPa 0 mm - - -
1788297546 33.33° C 38% 1014.4 hPa 0 mm - - -
1788297241 32.78° C 39% 1014.3 hPa 0 mm - - -
1788296937 33.33° C 40% 1014.4 hPa 0 mm - - -
1788296632 32.78° C 39% 1014.5 hPa 0 mm - - -

* Rain latest hour (hover to see other rain measurements)
** Current wind speed in m/s (hover to see current wind gust speed)